This demonstration page uses our WeatherBlox Daily Observations layout. Learn more.

Left ArrowRight Arrow

41.86663, -103.66717

Hourly Observations for September 23, 2018

Temp ( °F °C ) Dew Point ( °F °C ) Humidity (%) Winds ( mph kmh ) Pressure ( in mb ) Visibility ( mi km ) Precip ( " mm )
12:53 am 00:53 Clear 52 11.1 42 5.6 69 69 E 3 6 29.84 1011 10 16 N/A
1:53 am 01:53 Clear 49 9.4 42 5.6 77 77 NE 5 7 29.84 1010 10 16 N/A
2:53 am 02:53 Clear 51 10.6 42 5.6 71 71 N N/A 29.81 1010 10 16 N/A
3:53 am 03:53 Clear 45 7.2 41 5 86 86 NW 7 11 29.83 1010 10 16 N/A
4:53 am 04:53 Clear 42 5.6 40 4.4 92 92 NNW 7 11 29.84 1011 10 16 N/A
5:53 am 05:53 Clear 42 5.6 38 3.3 85 85 NNE 3 6 29.85 1011 10 16 N/A
6:53 am 06:53 Sunny 40 4.4 39 3.9 97 97 NW 3 6 29.88 1012 10 16 N/A
7:53 am 07:53 Sunny 48 8.9 41 5 77 77 N N/A 29.90 1013 10 16 N/A
8:53 am 08:53 Sunny 57 13.9 44 6.7 62 62 N N/A 29.88 1012 10 16 N/A
9:53 am 09:53 Sunny 70 21.1 37 2.8 30 30 NW 7 11 29.85 1011 10 16 N/A
10:53 am 10:53 Sunny 75 23.9 36 2.2 24 24 N N/A 29.83 1010 10 16 N/A
11:53 am 11:53 Sunny 83 28.3 35 1.7 18 18 N N/A 29.79 1009 10 16 N/A
12:53 pm 12:53 Sunny 89 31.7 33 0.6 14 14 VRB 5 7 29.74 1007 10 16 N/A
1:53 pm 13:53 Sunny 91 32.8 31 -0.6 12 12 VRB 3 6 29.71 1006 10 16 N/A
2:53 pm 14:53 Sunny 90 32.2 32 undefined 13 13 VRB 5 7 29.68 1005 10 16 N/A
3:53 pm 15:53 Sunny 89 31.7 33 0.6 14 14 N N/A 29.68 1005 10 16 N/A
4:53 pm 16:53 Sunny 87 30.6 38 3.3 18 18 NW 5 7 29.68 1005 10 16 N/A
5:53 pm 17:53 Sunny 80 26.7 44 6.7 28 28 ESE 3 6 29.70 1006 9 14 N/A
6:53 pm 18:53 Clear 74 23.3 43 6.1 33 33 E 6 9 29.71 1006 9 14 N/A
7:53 pm 19:53 Mostly Clear 75 23.9 41 5 29 29 NE 5 7 29.69 1005 9 14 N/A
8:24 pm 20:24 Mostly Clear with Light Rain 82 28 34 1 17 17 W 6 9 29.50 999 10 16 N/A
8:53 pm 20:53 Partly Cloudy with Light Rain 78 25.6 36 2.2 22 22 W 8 13 29.69 1005 10 16 N/A
9:53 pm 21:53 Clear with Light Rain 77 25 36 2.2 23 23 W 12 19 29.65 1004 10 16 N/A
10:53 pm 22:53 Clear with Light Rain 82 27.8 34 1.1 18 18 WNW 16 26 29.64 1004 10 16 N/A
11:53 pm 23:53 Clear 73 22.8 38 3.3 28 28 N 10 17 29.64 1004 10 16 N/A

Powered by AerisWeather